Weather Roundup
Issued by NWS

Home | Current Version | Previous Version | Graphics & Text | Print | Product List | Glossary Off
Versions: 1 2 3 4 5 6 7 8 9 10 11 12 13 14 15 16 17 18 19 20 21 22 23 24 25 26 27 28 29 30 31 32 33 34 35 36 37 38 39 40 41 42 43 44 45 46 47 48 49 50

035
NZUS93 KARX 230310
HRRWXR

CURRENT HOURLY OBSERVATIONS ACROSS
MUCH OF THE UPPER MISSISSIPPI VALLEY
NATIONAL WEATHER SERVICE LA CROSSE WI
1000 PM CDT TUE AUG 22 2017


...SOUTHEAST MINNESOTA...


CITY           SKY/WX    TMP DP  RH WIND       PRES   REMARKS
ROCHESTER      CLEAR     54  51  90 W8        30.07S
ROCHESTER/MAYO FAIR      63  48  59 W10       30.06S
WINONA         CLEAR     59  52  77 CALM      30.03S
AUSTIN         CLEAR     61  50  67 NW6       30.08S
ALBERT LEA     CLEAR     61  55  82 CALM      30.09S
DODGE CENTER   CLEAR     57  48  72 W7        30.07F
PRESTON        CLEAR     57  49  76 NW8       30.07S
OWATONNA       CLEAR     54  50  87 W6        30.08S
FARIBAULT      CLEAR     59  52  77 W6        30.07F
$$

...ELSEWHERE IN MINNESOTA...


CITY           SKY/WX    TMP DP  RH WIND       PRES   REMARKS
MINNEAPOLIS    CLEAR     67  48  50 W10       30.04S
INTNL FALLS    MOCLDY    55  48  77 NW8       30.00R
DULUTH         PTCLDY    55  52  89 NW7       29.99R
RED WING       CLEAR     57  50  77 NW3       30.02S
REDWOOD FALLS  CLEAR     60  50  69 W5        30.09S
MANKATO        CLEAR     58  53  84 W6        30.09S
WORTHINGTON    CLEAR     56  52  86 W7        30.14
FAIRMONT       CLEAR     58  53  84 CALM      30.11S
$$

...SOUTHWEST WISCONSIN...


CITY           SKY/WX    TMP DP  RH WIND       PRES   REMARKS
LA CROSSE      NOT AVBL
PRAIRIE DU CHI PTCLDY    62  51  66 NW5       30.04R
BOSCOBEL       CLEAR     59  54  83 SW5       30.03R
LONE ROCK      CLEAR     59  54  83 W3        30.01S
PLATTEVILLE    CLEAR     59  53  81 W6        30.04S
FORT MC COY    CLEAR     53  51  92 CALM      30.02F
CAMP DOUGLAS   CLEAR     52  48  87 W7        30.00S
MAUSTON-NEW LI CLEAR     58  52  80 W3        30.00S
VIROQUA        FAIR      58  53  83 W5        30.03F
WIS DELLS      CLEAR     60  49  65 W3        30.00S
$$

...ELSEWHERE IN WISCONSIN...


CITY           SKY/WX    TMP DP  RH WIND       PRES   REMARKS
MILWAUKEE      PTCLDY    69  50  50 W7        29.96S
MADISON        CLEAR     63  51  65 VRB3      29.99S
GREEN BAY      CLEAR     58  53  84 W7        29.93S
EAU CLAIRE     CLEAR     58  50  75 W6        29.99S
BLACK RVR FLS  FAIR      51  51  98 CALM      30.00S
MEDFORD        PTCLDY    56  49  78 W3        29.98S
WAUSAU         PTCLDY    58  50  75 W7        29.95S
WIS RAPIDS     CLEAR     59  50  72 W6        29.99S
MARSHFIELD     CLEAR     57  48  72 W6        29.98S
RICE LAKE      CLEAR     57  50  76 W3        30.01S
$$

...NORTHEAST IOWA...


CITY           SKY/WX    TMP DP  RH WIND       PRES   REMARKS
WATERLOO       CLEAR     57  52  83 NW3       30.08R
DUBUQUE        CLEAR     59  52  77 NW5       30.06R
DECORAH        PTCLDY    61  52  72 W5        30.05S
MASON CITY     CLEAR     55  49  80 NW8       30.11S
CHARLES CITY   CLEAR     57  54  88 W6        30.09R
OELWEIN        CLEAR     57  54  88 W6        30.08S
$$

...ELSEWHERE IN IOWA...


CITY           SKY/WX    TMP DP  RH WIND       PRES   REMARKS
DES MOINES     CLEAR     67  51  56 CALM      30.10R
IOWA CITY      CLEAR     64  53  67 NW6       30.09R
FORT DODGE     CLEAR     59  52  77 CALM      30.12S
MARSHALLTOWN   CLEAR     56  54  93 W3        30.09R
CEDAR RAPIDS   CLEAR     58  53  84 NW6       30.07R
$$

...NORTHERN ILLINOIS...


CITY           SKY/WX    TMP DP  RH WIND       PRES   REMARKS
CHICAGO-OHARE  PTCLDY    68  50  52 NW8       29.99R
CHICAGO-MIDWAY CLEAR     71  50  47 NW12      29.98R
MOLINE         CLEAR     64  53  67 NW7       30.05R
ROCKFORD       PTCLDY    61  51  70 NW6       30.03R
PEORIA         CLEAR     65  56  72 NW3       30.05R
$$

NOTE: "FAIR" INDICATES FEW OR NO CLOUDS BELOW 12,000 FEET WITH NO
SIGNIFICANT WEATHER AND/OR OBSTRUCTIONS TO VISIBILITY. WIND
SPEEDS ARE IN MILES-PER-HOUR.




USA.gov is the U.S. government's official web portal to all federal, state and local government web resources and services.